Regional Weather Roundup
Issued by NWS Sioux Falls, SD

Home | Current Version | Previous Version | Graphics & Text | Print | Product List | Glossary Off
Versions: 1 2 3 4 5 6 7 8 9 10 11 12 13 14 15 16 17 18 19 20 21 22 23 24 25 26 27 28 29 30 31 32 33 34 35 36 37 38 39 40 41 42 43 44 45 46 47 48 49 50

000
ASUS43 KFSD 170610
RWRFSD

WEATHER ROUNDUP FOR SE SOUTH DAKOTA/SW MINNESOTA/NW IOWA
NATIONAL WEATHER SERVICE SIOUX FALLS SD
100 AM CDT THU AUG 17 2017

NOTE: "FAIR" INDICATES FEW OR NO CLOUDS BELOW 12,000 FEET WITH NO
SIGNIFICANT WEATHER AND OR OBSTRUCTIONS TO VISIBILITY.


SDZ038>040-050-052>070-170700-
SOUTHEAST SOUTH DAKOTA

CITY           SKY/WX    TMP DP  RH WIND       PRES   REMARKS
BROOKINGS      CLOUDY    65  63  93 NW16G23   29.75R
CHAMBERLAIN    CLEAR     61  61  99 W8        29.91R
6HR MIN TEMP:  61; 6HR MAX TEMP:  69; 6HR PCP:  0.01;

HURON          PTCLDY    63  63 100 NW13      29.82F
6HR MIN TEMP:  63; 6HR MAX TEMP:  67; 6HR PCP: TRACE;

MADISON        CLOUDY    64  64 100 NW20      29.78R
MITCHELL       CLOUDY    65  64  97 NW12      29.82F
6HR MIN TEMP:  65; 6HR MAX TEMP:  68; 6HR PCP:  0.04;

SIOUX FALLS    CLOUDY    67  67 100 NW10G20   29.75S
6HR MIN TEMP:  66; 6HR MAX TEMP:  69; 6HR PCP:  0.16;

WINNER         FAIR      59  54  83 SW5       29.94S
YANKTON        CLOUDY    67  63  87 W16       29.80F
$$

MNZ071-072-080-081-089-090-097-098-170700-
SOUTHWEST MINNESOTA

CITY           SKY/WX    TMP DP  RH WIND       PRES   REMARKS
FAIRMONT       CLOUDY    67  63  87 W13G21    29.64R
JACKSON        CLOUDY    64  63  94 W13       29.67R
LUVERNE        CLOUDY    63  61  94 W10G16    29.73S
MARSHALL       RAIN      66  64  93 NW20G25   29.66R
6HR MIN TEMP:  66; 6HR MAX TEMP:  66; 6HR PCP:  1.25;

MONTEVIDEO     RAIN      64  64 100 N18G26    29.65S
PIPESTONE      LGT RAIN  66  64  94 NW9       29.73R
REDWOOD FALLS  HVY RAIN  66  64  93 NW33G47   29.52R VSB 1/2
TRACY          LGT RAIN  66  65  97 NW17G24   29.65S
WINDOM         LGT RAIN  66  63  88 W17G23    29.64S
WORTHINGTON    LGT RAIN  64  63  94 W13       29.71R
$$

IAZ001>003-012>014-020>022-031-032-NEZ013-014-SDZ071-170700-
NORTHWEST IOWA

CITY           SKY/WX    TMP DP  RH WIND       PRES   REMARKS
DENISON        CLOUDY    64  63  94 W10G17    29.80S
ESTHERVILLE    CLOUDY    65  65 100 W10       29.67R
LE MARS        CLOUDY    66  64  94 W12       29.75F
ORANGE CITY    LGT RAIN  66  66 100 W10       29.75S
SHELDON        CLOUDY    66  64  94 W10G16    29.72S
SIOUX CITY     CLOUDY    66  64  93 NW13      29.77F
6HR MIN TEMP:  66; 6HR MAX TEMP:  71; 6HR PCP:  0.01;

SPENCER        LGT RAIN  66  65  96 W14       29.70S
6HR MIN TEMP:  66; 6HR MAX TEMP:  71; 6HR PCP:  0.02;

STORM LAKE     CLOUDY    64  64 100 W14G20    29.75R
$$

ABBREVIATIONS USED IN REMARKS
   TC - TEMPERATURE IN CELSIUS
  WCI - WIND CHILL INDEX
   HX - HEAT INDEX
  VSB - VISIBILITY





USA.gov is the U.S. government's official web portal to all federal, state and local government web resources and services.